Austin, Texas, United States (73301)
Lat: 30.27N, Lon: 97.74W
Wx Zone: TXZ192
Local Info
Past Weather Observations for Today

NOTE: This archive is for the closest National Weather Service station to Austin. Information may differ from the station used for current weather conditions.

Time Weather Temperature Dewpoint Humidity Pressure Winds Precip Visibility
19:51
Overcast
72°F / 22°C 55°F / 13°C 57% 30.04 in
(1017 mb)
SSE 9.2 mph
(SSE 15 kph)
- 10SM
18:51
Mostly Cloudy
73°F / 23°C 57°F / 14°C 57% 30.04 in
(1017 mb)
SSE 8.1 mph
(SSE 13 kph)
- 10SM
17:51
Overcast
73°F / 23°C 59°F / 15°C 61% 30.04 in
(1017 mb)
SE 5.8 mph
(SE 9 kph)
- 10SM
16:51
Overcast
73°F / 23°C 61°F / 16°C 65% 30.06 in
(1018 mb)
SE 6.9 mph
(SE 11 kph)
- 10SM
15:51
Overcast
72°F / 22°C 61°F / 16°C 69% 30.06 in
(1018 mb)
Variable 4.6 mph
(Variable 7 kph)
- 10SM
14:51
Overcast
73°F / 23°C 61°F / 16°C 65% 30.09 in
(1019 mb)
Variable 6.9 mph
(Variable 11 kph)
- 10SM
13:51
Overcast
73°F / 23°C 61°F / 16°C 65% 30.09 in
(1019 mb)
SSE 10.4 mph
(SSE 17 kph)
- 10SM
12:51
Overcast
73°F / 23°C 63°F / 17°C 69% 30.12 in
(1020 mb)
S 9.2 mph
(S 15 kph)
- 10SM
11:58
Mostly Cloudy
73°F / 23°C 63°F / 17°C 69% 30.12 in
(1020 mb)
SSE 10.4 mph
(SSE 17 kph)
- 10SM
11:51
Overcast
73°F / 23°C 63°F / 17°C 69% 30.12 in
(1020 mb)
S 8.1 mph
(S 13 kph)
- 10SM
10:51
Overcast
70°F / 21°C 63°F / 17°C 78% 30.15 in
(1021 mb)
S 8.1 mph
(S 13 kph)
- 10SM
10:04
Overcast
70°F / 21°C 61°F / 16°C 73% 30.15 in
(1021 mb)
Variable 6.9 mph
(Variable 11 kph)
- 10SM
09:51
Overcast
68°F / 20°C 61°F / 16°C 78% 30.15 in
(1021 mb)
SE 9.2 mph
(SE 15 kph)
- 10SM
08:51
Overcast
66°F / 19°C 61°F / 16°C 83% 30.15 in
(1021 mb)
SSE 8.1 mph
(SSE 13 kph)
- 9SM
08:30
Overcast
66°F / 19°C 61°F / 16°C 83% 30.15 in
(1021 mb)
S 8.1 mph
(S 13 kph)
- 9SM
07:51
Overcast
Fog And Mist
64°F / 18°C 61°F / 16°C 88% 30.15 in
(1021 mb)
Variable 4.6 mph
(Variable 7 kph)
- 5SM
07:16
Overcast
Fog And Mist
63°F / 17°C 61°F / 16°C 94% 30.15 in
(1021 mb)
SE 3.5 mph
(SE 6 kph)
- 4SM
06:59
Overcast
Fog And Mist
63°F / 17°C 61°F / 16°C 94% 30.15 in
(1021 mb)
SE 4.6 mph
(SE 7 kph)
- 3SM
06:51
Overcast
Fog And Mist
63°F / 17°C 61°F / 16°C 94% 30.15 in
(1021 mb)
Variable 4.6 mph
(Variable 7 kph)
- 2 1/2SM
06:37
Overcast
Fog And Mist
63°F / 17°C 61°F / 16°C 94% 30.15 in
(1021 mb)
SE 4.6 mph
(SE 7 kph)
- 2 1/2SM
05:51
Overcast
Fog And Mist
61°F / 16°C 59°F / 15°C 94% 30.12 in
(1020 mb)
SE 4.6 mph
(SE 7 kph)
- 3SM
05:14
Overcast
Fog And Mist
63°F / 17°C 59°F / 15°C 88% 30.12 in
(1020 mb)
ESE 3.5 mph
(ESE 6 kph)
- 3SM
04:51
Overcast
Fog And Mist
63°F / 17°C 59°F / 15°C 88% 30.12 in
(1020 mb)
ESE 3.5 mph
(ESE 6 kph)
- 5SM
04:00
Overcast
63°F / 17°C 57°F / 14°C 83% 30.12 in
(1020 mb)
SE 3.5 mph
(SE 6 kph)
- 8SM
03:51
Overcast
63°F / 17°C 57°F / 14°C 83% 30.12 in
(1020 mb)
SE 3.5 mph
(SE 6 kph)
- 9SM
03:00
Overcast
63°F / 17°C 57°F / 14°C 83% 30.12 in
(1020 mb)
SE 3.5 mph
(SE 6 kph)
- 10SM
02:51
Overcast
63°F / 17°C 57°F / 14°C 83% 30.12 in
(1020 mb)
SE 3.5 mph
(SE 6 kph)
- 10SM
01:51
Partly Cloudy
63°F / 17°C 57°F / 14°C 83% 30.12 in
(1020 mb)
Variable 3.5 mph
(Variable 6 kph)
- 10SM
00:51
Clear
63°F / 17°C 57°F / 14°C 83% 30.12 in
(1020 mb)
Variable 4.6 mph
(Variable 7 kph)
- 10SM
Time Weather Temperature Dewpoint Humidity Pressure Winds Precip Visibility


Weather for websites

WeatherForYou.com, LLC is not responsible for any damages or problems caused by this service. Current weather conditions are obtained from the closest station including government and personal stations which may have varying degrees of accuracy. Weather forecasts are derived from the NOAA NDFD. Like all things, this site belongs to Jesus Christ... He just trusts me to maintain it. If you have any questions or comments email webmaster@weatherforyou.com

Copyright © 2014, WeatherForYou.com LLC. All rights reserved.